| time (UTC) | temp C | wind direction | speed KPH | gust KPH | rain 1hr cm | rain 24hr cm | rain mn cm | humidity % | barometer mb |
| 20260504191550 | 27 | 22 | 12.9 | 30.6 | 0.00 | 0.00 | 0.00 | 23 | 1002.0 |
| 20260504184551 | 27 | 9 | 16.1 | 30.6 | 0.00 | 0.00 | 0.00 | 24 | 1002.6 |
| 20260504183041 | 27 | 32 | 16.1 | 30.6 | 0.00 | 0.00 | 0.00 | 25 | 1002.4 |
| 20260504181542 | 27 | 77 | 11.3 | 30.6 | 0.00 | 0.00 | 0.00 | 25 | 1002.6 |
| 20260504180050 | 27 | 5 | 19.3 | 33.8 | 0.00 | 0.00 | 0.00 | 25 | 1002.7 |
| 20260504174553 | 27 | 355 | 11.3 | 30.6 | 0.00 | 0.00 | 0.00 | 25 | 1002.7 |
| 20260504173050 | 26 | 33 | 12.9 | 22.5 | 0.00 | 0.00 | 0.00 | 27 | 1002.8 |
| 20260504171551 | 26 | 40 | 6.4 | 25.7 | 0.00 | 0.00 | 0.00 | 30 | 1002.8 |
| 20260504081539 | 12 | 140 | 1.6 | 6.4 | 0.00 | 0.00 | 0.00 | 60 | 1003.4 |
| 20260504044543 | 15 | 360 | 3.2 | 9.7 | 0.00 | 0.00 | 0.00 | 50 | 1006.6 |
| 20260504043049 | 15 | 360 | 4.8 | 9.7 | 0.00 | 0.00 | 0.00 | 50 | 1007.0 |
| 20260504041543 | 16 | 360 | 4.8 | 12.9 | 0.00 | 0.00 | 0.00 | 48 | 1007.0 |
| 20260504040048 | 17 | 105 | 6.4 | 11.3 | 0.00 | 0.00 | 0.00 | 46 | 1007.2 |
| 20260504034543 | 17 | 360 | 8.0 | 16.1 | 0.00 | 0.00 | 0.00 | 46 | 1007.4 |
| 20260504033043 | 17 | 360 | 8.0 | 12.9 | 0.00 | 0.00 | 0.00 | 45 | 1007.5 |
| 20260504031546 | 18 | 360 | 8.0 | 17.7 | 0.00 | 0.00 | 0.00 | 44 | 1007.7 |
| 20260504030043 | 18 | 360 | 9.7 | 17.7 | 0.00 | 0.00 | 0.00 | 43 | 1007.6 |
| 20260504024601 | 18 | 360 | 9.7 | 19.3 | 0.00 | 0.00 | 0.00 | 42 | 1007.6 |
| 20260504023048 | 18 | 360 | 4.8 | 12.9 | 0.00 | 0.00 | 0.00 | 42 | 1007.7 |
| 20260504021544 | 19 | 360 | 8.0 | 16.1 | 0.00 | 0.00 | 0.00 | 40 | 1007.6 |
| 20260504020046 | 20 | 360 | 6.4 | 16.1 | 0.00 | 0.00 | 0.00 | 39 | 1007.5 |
| 20260504014541 | 20 | 360 | 6.4 | 12.9 | 0.00 | 0.00 | 0.00 | 38 | 1007.3 |
| 20260504013051 | 21 | 360 | 8.0 | 16.1 | 0.00 | 0.00 | 0.00 | 37 | 1007.5 |
| 20260504011545 | 21 | 360 | 6.4 | 16.1 | 0.00 | 0.00 | 0.00 | 36 | 1007.5 |
| 20260504010052 | 22 | 360 | 8.0 | 16.1 | 0.00 | 0.00 | 0.00 | 35 | 1007.6 |
| 20260504004547 | 22 | 81 | 11.3 | 20.9 | 0.00 | 0.00 | 0.00 | 34 | 1007.7 |
| 20260504003046 | 23 | 85 | 14.5 | 20.9 | 0.00 | 0.00 | 0.00 | 33 | 1007.7 |
| 20260504001543 | 23 | 92 | 14.5 | 27.4 | 0.00 | 0.00 | 0.00 | 33 | 1007.6 |
| 20260504000106 | 23 | 91 | 9.7 | 17.7 | 0.00 | 0.00 | 0.00 | 32 | 1007.7 |
| 20260503234551 | 24 | 106 | 8.0 | 17.7 | 0.00 | 0.00 | 0.00 | 31 | 1007.9 |
| 20260503233043 | 24 | 84 | 11.3 | 17.7 | 0.00 | 0.00 | 0.00 | 30 | 1007.9 |
| 20260503231545 | 25 | 90 | 9.7 | 19.3 | 0.00 | 0.00 | 0.00 | 30 | 1008.2 |
| 20260503230042 | 25 | 118 | 9.7 | 19.3 | 0.00 | 0.00 | 0.00 | 29 | 1008.2 |
| 20260503224539 | 25 | 75 | 4.8 | 16.1 | 0.00 | 0.00 | 0.00 | 28 | 1008.3 |
| 20260503223040 | 26 | 223 | 3.2 | 9.7 | 0.00 | 0.00 | 0.00 | 27 | 1008.4 |
| 20260503221551 | 25 | 347 | 3.2 | 12.9 | 0.00 | 0.00 | 0.00 | 27 | 1008.7 |
| 20260503220043 | 25 | 44 | 6.4 | 20.9 | 0.00 | 0.00 | 0.00 | 28 | 1008.8 |
| 20260503214543 | 26 | 51 | 4.8 | 12.9 | 0.00 | 0.00 | 0.00 | 27 | 1009.0 |
| 20260503213048 | 26 | 184 | 4.8 | 11.3 | 0.00 | 0.00 | 0.00 | 28 | 1009.1 |
| 20260503211559 | 26 | 131 | 6.4 | 11.3 | 0.00 | 0.00 | 0.00 | 28 | 1009.2 |
| 20260503210048 | 25 | 347 | 1.6 | 9.7 | 0.00 | 0.00 | 0.00 | 28 | 1009.5 |
| 20260503204549 | 25 | 39 | 8.0 | 19.3 | 0.00 | 0.00 | 0.00 | 29 | 1009.8 |
| 20260503203105 | 25 | 65 | 4.8 | 19.3 | 0.00 | 0.00 | 0.00 | 29 | 1010.1 |
| 20260503201546 | 24 | 69 | 11.3 | 24.1 | 0.00 | 0.00 | 0.00 | 29 | 1010.1 |
| 20260503200054 | 24 | 57 | 6.4 | 27.4 | 0.00 | 0.00 | 0.00 | 30 | 1010.4 |
| 20260503194554 | 24 | 71 | 9.7 | 19.3 | 0.00 | 0.00 | 0.00 | 30 | 1010.4 |
| 20260503193051 | 23 | 76 | 14.5 | 22.5 | 0.00 | 0.00 | 0.00 | 31 | 1010.6 |